Torna al catalogo

QIANFAN-204

AttivoComunicazioniPO
NORAD 69803·PAYLOAD·🇨🇳 China

Lanciato Jul 4, 2026 da Taiyuan Satellite Launch Center

Loading…

Prossimi Passaggi (prossime 24 ore)

TLE

AggiornatoSource: Space-Track

Epoca: Sep 14, 2026, 11:57 UTC

1 69803U 26153D   26257.49801105 -.01873025  00000-0 -12730+1 0  9994
2 69803  88.9973 352.1193 0010862 340.5893  19.4873 14.03843148 10217

Traccia QIANFAN-204 in tempo reale con AllMySat

Download on the App Store